www.pogodaiklimat.ru

Погода и климат >> Архив погоды >> Россия >> Приморский край >> Владивосток


АРХИВ ПОГОДЫ в Владивостоке

Время (UTC), дата Ветер
(напр.,м/с)
 
Видим.   Явления Облачность Т
(С)
Тd
(С)
f
(%)
Тe
(С)
Тes
(С)
Комфортность P
(гПа)
Po
(гПа)
Тmin
(С)
Tmax
(С)
R
(мм)
R24
(мм)
S
(см)
09 18.06 Ю 10-14
{14}
200 м слабая морось {туман} ?/? +13.9 +13.9 100 +11 +11 по сезону 1009.1 986.9 +14.1 1
12 18.06 Ю 9-12
{15}
200 м туман {морось} ?/? +13.7 +13.7 100 +11 +11 по сезону 1008.9 986.7
15 18.06 ЮВ 8
{12}
200 м слабый дождь {морось} туман ?/? +13.4 +13.4 100 +11 +11 по сезону 1009.3 987.1
18 18.06 ЮВ 6 200 м туман {дождь, морось} ?/? +13.4 +13.4 100 +11 +11 по сезону 1009.7 987.4
21 18.06 ЮВ 6
{12}
200 м туман {дождь, морось} ?/? +13.7 +13.7 100 +11 +11 по сезону 1009.1 986.8 +13.2 2
00 19.06 ЮВ 4 200 м туман {дождь, морось} ?/? +13.9 +13.9 100 +12 +12 по сезону 1009.7 987.5
03 19.06 ЮВ 4 200 м туман ?/? +14.3 +14.3 100 +13 +13 по сезону 1009.6 987.5
06 19.06 ЮВ 5 200 м туман ?/? +14.3 +14.3 100 +12 +12 прохладно 1008.3 986.2
09 19.06 ЮВ 6 200 м туман ?/? +14.1 +14.1 100 +12 +12 по сезону 1008.0 985.8 +14.8
12 19.06 ЮВ 5 200 м туман ?/? +13.9 +13.9 100 +12 +12 по сезону 1008.4 986.2
15 19.06 ЮВ 8-10
{10}
200 м туман ?/? +13.8 +13.8 100 +11 +11 по сезону 1007.9 985.7
18 19.06 ЮВ 7
{11}
200 м туман {морось} ?/? +13.9 +13.9 100 +11 +11 по сезону 1007.5 985.3
21 19.06 ЮВ 7
{10}
200 м сильная морось {туман} туман ?/? +14.1 +14.1 100 +12 +12 по сезону 1007.7 985.5 +13.6 3
00 20.06 ЮВ 9-11
{12}
200 м морось {туман} туман ?/? +14.4 +14.4 100 +12 +12 по сезону 1007.8 985.7
03 20.06 ЮВ 7
{11}
200 м туман {морось} ?/? +14.6 +14.6 100 +12 +12 по сезону 1008.0 985.9
06 20.06 ЮВ 9-13
{13}
200 м туман {морось} ?/? +14.4 +14.4 100 +12 +12 прохладно 1007.2 985.0
09 20.06 ЮВ 12-16
{16}
200 м морось {туман} туман ?/? +14.3 +14.3 100 +11 +11 по сезону 1006.6 984.5 +14.7 1
12 20.06 ЮВ 7-11
{16}
200 м слабая морось {туман} ?/? +13.9 +13.9 100 +11 +11 по сезону 1008.1 986.0
15 20.06 ЮВ 9-13
{14}
200 м туман {морось} ?/? +13.3 +13.3 100 +10 +10 по сезону 1007.6 985.4
18 20.06 ЮВ 7
{13}
200 м туман {морось} ?/? +13.4 +13.4 100 +11 +11 по сезону 1007.1 984.9
21 20.06 ЮВ 10 200 м морось {туман} ?/? +12.5 +12.5 100 +9 +9 по сезону 1006.8 984.6 +12.5 2
00 21.06 ЮВ 6
{14}
200 м туман {морось} ?/? +11.9 +11.9 100 +9 +9 прохладно 1007.7 985.4 +11.9
03 21.06 Ю 8-10
{13}
20 км {туман} 10/10 200 м
[St]
+11.3 +11.1 99 +8 +8 холодно 1007.5 985.2
06 21.06 Ю 9-12
{14}
20 км {туман} 10/10 200 м
[St]
+10.5 +10.3 99 +6 +6 очень
холодно
1006.7 984.3
09 21.06 Ю 4
{12}
20 км 10/10 600 м
[Sc]
+10.9 +10.3 96 +8 +8 холодно 1005.9 983.5 +12.5 0.0
12 21.06 Ю 4 20 км 10/10 600 м
[Sc]
+10.6 +10.4 99 +8 +8 прохладно 1007.1 984.7
15 21.06 ЮВ 6 20 км 10/10 600 м
[Sc]
+10.4 +9.6 95 +7 +7 прохладно 1006.7 984.2
18 21.06 ЮВ 4 20 км 10/10 600 м
[Sc]
+10.7 +10.1 96 +8 +8 прохладно 1006.6 984.2
21 21.06 ЮВ 2 200 м туман ?/? +10.9 +10.9 100 +9 +9 прохладно 1007.1 984.7 +10.1
00 22.06 штиль 0 200 м туман ?/? +12.9 +12.9 100 +12 +12 по сезону 1007.2 985.0
03 22.06 СЗ 1 20 км {туман} 8/8 600 м
[Sc]
+17.5 +14.7 84 +19 +23 тепло 1006.4 984.5
06 22.06 З 2 20 км {туман} 6/6 600 м
[Sc]
+20.6 +15.6 73 +24 +30 комфорт 1005.5 983.9
09 22.06 ЮЗ 2 20 км 9/9 600 м
[Sc]
+18.6 +16.1 85 +20 +20 тепло 1005.8 984.0 +21.4
12 22.06 СЗ 3 20 км 3/3 600 м
[Sc]
+18.5 +17.7 95 +19 +19 тепло 1006.7 984.9
15 22.06 СЗ 3 20 км ясно +18.2 +17.3 94 +19 +19 тепло 1007.2 985.4
18 22.06 С 4 20 км ясно +17.3 +16.5 95 +17 +17 тепло 1007.1 985.2
21 22.06 С 3 20 км ясно +17.3 +16.6 96 +17 +18 тепло 1007.5 985.6 +16.2
00 23.06 СЗ 5 50 км ясно +20.9 +16.3 75 +24 +30 комфорт 1007.2 985.6
03 23.06 СЗ 3 50 км ясно +24.9 +15.7 57 +28 +44 жарко 1006.1 984.8
06 23.06 ЮЗ 3 50 км 1/1 600 м
[Cu hum]
+25.9 +14.2 48 +28 +38 жарко 1004.9 983.7
09 23.06 ЮЗ 5 50 км 3/3 600 м
[Cu hum]
+24.2 +15.6 59 +27 +28 жарко 1003.9 982.6 +26.5
12 23.06 Ю 4 50 км 4/4 600 м
[Cb calv]
+20.3 +14.7 70 +23 +23 комфорт 1005.0 983.4
15 23.06 ЮВ 4 50 км ясно +20.0 +14.5 71 +22 +22 комфорт 1004.5 982.9
18 23.06 В 2 50 км ясно +18.8 +13.7 72 +20 +20 тепло 1003.8 982.1
21 23.06 В 4 50 км 1/1 600 м
[Cu hum]
+18.0 +14.2 78 +18 +19 тепло 1004.0 982.2 +15.3
00 24.06 ЮЗ 1 20 км 3/0
[Ci fib]
+21.5 +17.0 76 +25 +38 комфорт 1003.7 982.2
03 24.06 ЮВ 4 20 км 6/0
[Ci fib]
+24.0 +16.5 63 +27 +39 жарко 1002.2 980.9
06 24.06 ЮВ 4 20 км 3/3 600 м
[Sc]
+24.1 +16.5 63 +28 +34 душно 1000.8 979.5
09 24.06 ЮВ 3 20 км 10/10 600 м
[Sc]
+20.4 +15.5 73 +23 +23 комфорт 1000.7 979.2 +25.9
12 24.06 ЮВ 8-10
{13}
200 м туман ?/? +14.0 +13.9 99 +11 +11 по сезону 1003.6 981.5
15 24.06 ЮВ 7-10
{12}
20 км {туман} 10/10 600 м
[Sc]
+11.3 +11.1 99 +8 +8 прохладно 1004.4 982.1
18 24.06 ЮВ 7
{13}
20 км {туман} 10/10 600 м
[Sc]
+10.9 +10.5 97 +7 +7 прохладно 1004.7 982.3
21 24.06 Ю 3 10 км слабый дождь 10/0 200 м
[As op]
+11.0 +10.6 97 +9 +9 прохладно 1005.6 983.3 +10.9 0.3
00 25.06 ЮЗ 2 200 м туман {дождь, морось} ?/? +11.3 +11.3 100 +10 +10 прохладно 1006.6 984.2 +10.7
03 25.06 Ю 4 20 км {туман} 9/9 600 м
[Sc]
+15.2 +13.3 88 +14 +15 по сезону 1006.4 984.3
06 25.06 ЮВ 7 50 км {туман} 3/3 600 м
[Sc diur, vesp]
+13.8 +11.0 83 +11 +14 холодно 1006.6 984.4

 

Местоположение метеостанции Владивосток (Приморский край, Россия): широта 43.12 долгота 131.90 высота над уровнем моря 188 м.

В архиве по умолчанию представлена погода в Владивостоке за последнюю неделю. Архивные данные за месяц целиком и за предыдущие месяцы, начиная с января 2011 года, Вы можете получить, выбрав интересующий диапазон дат из раскрывающегося списка и нажав кнопку "Ввод!".

Внимание! Время в таблицах - всемирное. Для получения местного времени необходимо прибавить поправку, которая в Владивостоке равна 10 ч.

Смотрите также архив погоды в соседних городах и на ближайших метеорологических станциях:

Погода в Барабаше (Приморский край, Россия) (42 км)
Погода в Находке (Приморский край, Россия) (81 км)
Погода в Гамове (Приморский край, Россия) (84 км)
Погода в Тимирязевском (Приморский край, Россия) (85 км)
Погода в Партизанске (Приморский край, Россия) (89 км)
Погода в Посьете (Приморский край, Россия) (104 км)
Погода в Полтавке (Приморский край, Россия) (112 км)
Погода в Анучино (Приморский край, Россия) (130 км)
Погода в Хороль (Приморский край, Россия) (146 км)
Погода в Пограничном (Приморский край, Россия) (150 км)

Пояснения к столбцам:

Ветер - указаны скорость ветра в м/с - средняя за 10 мин, порывы в срок и между сроками (в фигурных скобках) и направление, откуда дует ветер: С - северный, СВ - северо-восточный, В - восточный, ЮВ - юго-восточный, Ю - южный, ЮЗ - юго-западный, З - западный, СЗ - северо-западный.
Видимость - горизонтальная дальность видимости в метрах или километрах. При видимости от 1 до 10 км при отсутствии осадков обычно наблюдается дымка, при ухудшении видимости до 1 км и менее - туман. В сухую погоду видимость может ухудшаться дымом, пылью или мглою.
Явления - указаны атмосферные явления, наблюдавшиеся в срок или в последний час перед сроком; фигурными скобками обозначены явления, наблюдавшиеся между сроками (за 1-3 часа до срока); квадратными скобками обозначены град или гололедные отложения с указанием их диаметра в мм.
Облачность - указаны через наклонную черту общая и нижняя облачность в баллах и высота нижней границы облаков в метрах; квадратными скобками обозначены формы облаков: Ci - перистые, Cs - перисто-слоистые, Cc - перисто-кучевые, Ac - высококучевые, As - высокослоистые, Sc - слоисто-кучевые, Ns - слоисто-дождевые, Cu - кучевые, Cb - кучево-дождевые. Подробнее классификацию облаков см. в Атласе облаков (PDF).
T - Температура воздуха - температура, измеренная на высоте 2 м над землей.
Td - Температура точки росы - температура, при понижении до которой содержащийся в воздухе водяной пар достигнет насыщения.
f - Относительная влажность воздуха - влажноcть воздуха, измеренная на высоте 2 м над землей.
Te - Эффективная температура - температура, которую ощущает одетый по сезону человек в тени. Характеристика душности погоды. При расчете учитывается влияние влажности воздуха и скорости ветра на теплоощущения человека.
Tes - Эффективная температура на солнце - температура, которую ощущает человек, с поправкой на солнечный нагрев. Характеристика знойности погоды. Зависит от высоты солнца над горизонтом, облачности и скорости ветра. Ночью, в пасмурную погоду, а также при ветре 12 м/с и более поправка равна нулю.
P - Атмосферное давление - приведенное к уровню моря атмосферное давление.
Po - Атмосферное давление - измеренное на уровне метеостанции атмосферное давление.
Tmin - Минимальная температура - минимум температуры воздуха на высоте 2 м над землей.
Tmax - Максимальная температура - максимум температуры воздуха на высоте 2 м над землей.
R - Количество осадков - Количество выпавших осадков за период времени, мм. При наведении курсора мыши на число - период времени, за который выпало указанное количество осадков.
R24 - Количество осадков - Количество выпавших осадков за 24 часа, мм.
S - Снежный покров - Высота снежного покрова, см. При наведении курсора мыши на число - состояние снежного покрова и степень покрытия местности в баллах.